| time (UTC) | temp F | wind direction | speed MPH | gust MPH | rain 1hr in | rain 24hr in | rain mn in | humidity % | barometer mb |
| 20260507141554 | 52 | 191 | 0.0 | 3.0 | 0.00 | 0.00 | 0.00 | 89 | 1020.3 |
| 20260507141049 | 52 | 191 | 1.0 | 3.0 | 0.00 | 0.00 | 0.00 | 89 | 1020.3 |
| 20260507140549 | 52 | 241 | 0.0 | 3.0 | 0.00 | 0.00 | 0.00 | 89 | 1020.2 |
| 20260507140106 | 52 | 227 | 0.0 | 2.0 | 0.00 | 0.00 | 0.00 | 89 | 1020.1 |
| 20260507135544 | 52 | 178 | 0.0 | 2.0 | 0.00 | 0.00 | 0.00 | 89 | 1020.2 |
| 20260507135044 | 52 | 178 | 0.0 | 2.0 | 0.00 | 0.00 | 0.00 | 88 | 1020.2 |
| 20260507134544 | 52 | 185 | 0.0 | 3.0 | 0.00 | 0.00 | 0.00 | 88 | 1020.2 |
| 20260507134042 | 52 | 185 | 1.0 | 3.0 | 0.00 | 0.00 | 0.00 | 88 | 1020.2 |
| 20260507133542 | 52 | 85 | 0.0 | 2.0 | 0.00 | 0.00 | 0.00 | 88 | 1020.3 |
| 20260507133042 | 52 | 101 | 1.0 | 2.0 | 0.00 | 0.00 | 0.00 | 88 | 1020.1 |
| 20260507132540 | 52 | 203 | 0.0 | 2.0 | 0.00 | 0.00 | 0.00 | 88 | 1020.1 |
| 20260507132043 | 52 | 159 | 0.0 | 3.0 | 0.00 | 0.00 | 0.00 | 87 | 1020.1 |
| 20260507131540 | 52 | 179 | 0.0 | 3.0 | 0.00 | 0.00 | 0.00 | 87 | 1020.1 |
| 20260507131042 | 52 | 37 | 0.0 | 3.0 | 0.00 | 0.00 | 0.00 | 87 | 1020.1 |
| 20260507130539 | 52 | 174 | 1.0 | 4.0 | 0.00 | 0.00 | 0.00 | 87 | 1020.1 |
| 20260507130049 | 52 | 139 | 1.0 | 5.0 | 0.00 | 0.00 | 0.00 | 87 | 1020.0 |
| 20260507125539 | 52 | 191 | 2.0 | 5.0 | 0.00 | 0.00 | 0.00 | 87 | 1020.1 |
| 20260507125038 | 53 | 213 | 1.0 | 4.0 | 0.00 | 0.00 | 0.00 | 87 | 1020.0 |
| 20260507124546 | 53 | 172 | 1.0 | 6.0 | 0.00 | 0.00 | 0.00 | 87 | 1020.0 |
| 20260507124038 | 53 | 210 | 2.0 | 6.0 | 0.00 | 0.00 | 0.00 | 87 | 1020.0 |
| 20260507123538 | 53 | 223 | 2.0 | 3.0 | 0.00 | 0.00 | 0.00 | 87 | 1020.0 |
| 20260507123051 | 53 | 128 | 0.0 | 4.0 | 0.00 | 0.00 | 0.00 | 87 | 1020.0 |
| 20260507122536 | 53 | 158 | 1.0 | 4.0 | 0.00 | 0.00 | 0.00 | 87 | 1020.0 |
| 20260507122036 | 53 | 88 | 0.0 | 3.0 | 0.00 | 0.00 | 0.00 | 86 | 1020.0 |
| 20260507121541 | 53 | 205 | 1.0 | 3.0 | 0.00 | 0.00 | 0.00 | 86 | 1020.0 |
| 20260507121036 | 53 | 145 | 0.0 | 3.0 | 0.00 | 0.00 | 0.00 | 87 | 1019.9 |
| 20260507120535 | 53 | 168 | 0.0 | 2.0 | 0.00 | 0.00 | 0.00 | 87 | 1020.0 |
| 20260507120035 | 53 | 219 | 1.0 | 3.0 | 0.00 | 0.00 | 0.00 | 87 | 1020.1 |
| 20260507115535 | 53 | 10 | 0.0 | 3.0 | 0.00 | 0.00 | 0.00 | 86 | 1020.1 |
| 20260507115034 | 53 | 208 | 1.0 | 2.0 | 0.00 | 0.00 | 0.00 | 86 | 1020.3 |
| 20260507114535 | 53 | 158 | 1.0 | 3.0 | 0.00 | 0.00 | 0.00 | 86 | 1020.3 |
| 20260507114036 | 53 | 182 | 1.0 | 3.0 | 0.00 | 0.00 | 0.00 | 86 | 1020.3 |
| 20260507113533 | 53 | 182 | 1.0 | 5.0 | 0.00 | 0.00 | 0.00 | 86 | 1020.3 |
| 20260507113035 | 53 | 174 | 1.0 | 5.0 | 0.00 | 0.00 | 0.00 | 86 | 1020.3 |
| 20260507112532 | 53 | 205 | 0.0 | 3.0 | 0.00 | 0.00 | 0.00 | 86 | 1020.3 |
| 20260507112031 | 53 | 333 | 1.0 | 3.0 | 0.00 | 0.00 | 0.00 | 86 | 1020.3 |
| 20260507111532 | 53 | 199 | 0.0 | 3.0 | 0.00 | 0.00 | 0.00 | 86 | 1020.3 |
| 20260507111030 | 53 | 121 | 1.0 | 5.0 | 0.00 | 0.00 | 0.00 | 86 | 1020.3 |
| 20260507110530 | 53 | 183 | 2.0 | 5.0 | 0.00 | 0.00 | 0.00 | 86 | 1020.2 |
| 20260507110030 | 53 | 156 | 2.0 | 5.0 | 0.00 | 0.00 | 0.00 | 85 | 1020.3 |
| 20260507105531 | 53 | 187 | 3.0 | 5.0 | 0.00 | 0.00 | 0.00 | 85 | 1020.3 |
| 20260507105028 | 53 | 149 | 1.0 | 4.0 | 0.00 | 0.00 | 0.00 | 85 | 1020.3 |
| 20260507104529 | 53 | 147 | 1.0 | 3.0 | 0.00 | 0.00 | 0.00 | 85 | 1020.2 |
| 20260507104028 | 53 | 195 | 0.0 | 4.0 | 0.00 | 0.00 | 0.00 | 85 | 1020.2 |
| 20260507103527 | 53 | 180 | 2.0 | 5.0 | 0.00 | 0.00 | 0.00 | 85 | 1020.2 |
| 20260507103027 | 53 | 190 | 3.0 | 5.0 | 0.00 | 0.00 | 0.00 | 85 | 1020.2 |
| 20260507102525 | 53 | 172 | 1.0 | 4.0 | 0.00 | 0.00 | 0.00 | 85 | 1020.3 |
| 20260507102025 | 53 | 192 | 0.0 | 3.0 | 0.00 | 0.00 | 0.00 | 85 | 1020.2 |
| 20260507101533 | 53 | 154 | 1.0 | 5.0 | 0.00 | 0.00 | 0.00 | 85 | 1020.1 |
| 20260507101023 | 54 | 135 | 1.0 | 5.0 | 0.00 | 0.00 | 0.00 | 85 | 1020.0 |
| 20260507100523 | 54 | 172 | 1.0 | 3.0 | 0.00 | 0.00 | 0.00 | 85 | 1020.0 |
| 20260507100031 | 54 | 178 | 1.0 | 5.0 | 0.00 | 0.00 | 0.00 | 85 | 1020.0 |
| 20260507095523 | 54 | 169 | 2.0 | 5.0 | 0.00 | 0.00 | 0.00 | 85 | 1020.0 |
| 20260507095023 | 54 | 174 | 1.0 | 2.0 | 0.00 | 0.00 | 0.00 | 84 | 1020.0 |
| 20260507094523 | 54 | 174 | 0.0 | 2.0 | 0.00 | 0.00 | 0.00 | 84 | 1020.0 |
| 20260507094022 | 54 | 174 | 0.0 | 2.0 | 0.00 | 0.00 | 0.00 | 84 | 1020.1 |
| 20260507093523 | 54 | 174 | 0.0 | 2.0 | 0.00 | 0.00 | 0.00 | 84 | 1020.1 |
| 20260507093035 | 54 | 248 | 0.0 | 1.0 | 0.00 | 0.00 | 0.00 | 84 | 1020.1 |
| 20260507092524 | 54 | 255 | 0.0 | 1.0 | 0.00 | 0.00 | 0.00 | 84 | 1020.1 |
| 20260507092021 | 54 | 162 | 0.0 | 2.0 | 0.00 | 0.00 | 0.00 | 84 | 1020.1 |
| 20260507091521 | 54 | 162 | 0.0 | 3.0 | 0.00 | 0.00 | 0.00 | 84 | 1020.1 |
| 20260507091020 | 54 | 166 | 1.0 | 3.0 | 0.00 | 0.00 | 0.00 | 84 | 1020.1 |
| 20260507090523 | 54 | 196 | 0.0 | 3.0 | 0.00 | 0.00 | 0.00 | 84 | 1020.1 |
| 20260507090029 | 54 | 143 | 0.0 | 2.0 | 0.00 | 0.00 | 0.00 | 84 | 1020.0 |
| 20260507085520 | 54 | 143 | 0.0 | 2.0 | 0.00 | 0.00 | 0.00 | 84 | 1020.0 |
| 20260507085019 | 54 | 143 | 0.0 | 2.0 | 0.00 | 0.00 | 0.00 | 84 | 1020.0 |
| 20260507084518 | 54 | 143 | 0.0 | 2.0 | 0.00 | 0.00 | 0.00 | 84 | 1020.0 |
| 20260507084022 | 54 | 143 | 0.0 | 2.0 | 0.00 | 0.00 | 0.00 | 83 | 1020.0 |
| 20260507083518 | 54 | 143 | 0.0 | 3.0 | 0.00 | 0.00 | 0.00 | 84 | 1020.0 |
| 20260507083032 | 54 | 143 | 0.0 | 4.0 | 0.00 | 0.00 | 0.00 | 84 | 1020.0 |
| 20260507082517 | 54 | 203 | 2.0 | 4.0 | 0.00 | 0.00 | 0.00 | 84 | 1019.9 |
| 20260507082016 | 54 | 54 | 0.0 | 3.0 | 0.00 | 0.00 | 0.00 | 83 | 1019.9 |
| 20260507081516 | 54 | 63 | 0.0 | 1.0 | 0.00 | 0.00 | 0.00 | 84 | 1019.8 |
| 20260507081016 | 54 | 63 | 0.0 | 1.0 | 0.00 | 0.00 | 0.00 | 83 | 1019.8 |
| 20260507080515 | 54 | 63 | 0.0 | 1.0 | 0.00 | 0.00 | 0.00 | 84 | 1019.8 |
| 20260507080015 | 54 | 63 | 0.0 | 1.0 | 0.00 | 0.00 | 0.00 | 83 | 1019.8 |
| 20260507075515 | 54 | 63 | 0.0 | 1.0 | 0.00 | 0.00 | 0.00 | 83 | 1019.8 |
| 20260507075016 | 54 | 63 | 0.0 | 4.0 | 0.00 | 0.00 | 0.00 | 83 | 1019.8 |
| 20260507074525 | 54 | 63 | 0.0 | 4.0 | 0.00 | 0.00 | 0.00 | 83 | 1019.8 |
| 20260507074015 | 54 | 43 | 0.0 | 2.0 | 0.00 | 0.00 | 0.00 | 83 | 1019.8 |
| 20260507073515 | 54 | 329 | 0.0 | 2.0 | 0.00 | 0.00 | 0.00 | 83 | 1019.8 |
| 20260507073013 | 54 | 243 | 0.0 | 4.0 | 0.00 | 0.00 | 0.00 | 83 | 1019.7 |
| 20260507072512 | 54 | 193 | 2.0 | 4.0 | 0.00 | 0.00 | 0.00 | 83 | 1019.7 |
| 20260507072012 | 54 | 180 | 1.0 | 3.0 | 0.00 | 0.00 | 0.00 | 83 | 1019.7 |
| 20260507071511 | 54 | 207 | 1.0 | 3.0 | 0.00 | 0.00 | 0.00 | 83 | 1019.6 |
| 20260507071017 | 54 | 146 | 2.0 | 4.0 | 0.00 | 0.00 | 0.00 | 83 | 1019.6 |
| 20260507070510 | 54 | 185 | 2.0 | 3.0 | 0.00 | 0.00 | 0.00 | 82 | 1019.6 |
| 20260507070012 | 54 | 102 | 0.0 | 2.0 | 0.00 | 0.00 | 0.00 | 82 | 1019.6 |
| 20260507065514 | 54 | 331 | 0.0 | 3.0 | 0.00 | 0.00 | 0.00 | 82 | 1019.5 |
| 20260507065009 | 54 | 42 | 1.0 | 4.0 | 0.00 | 0.00 | 0.00 | 82 | 1019.5 |
| 20260507064510 | 54 | 58 | 1.0 | 4.0 | 0.00 | 0.00 | 0.00 | 82 | 1019.5 |
| 20260507064009 | 54 | 57 | 0.0 | 4.0 | 0.00 | 0.00 | 0.00 | 82 | 1019.5 |
| 20260507063508 | 54 | 31 | 1.0 | 3.0 | 0.00 | 0.00 | 0.00 | 82 | 1019.5 |
| 20260507063007 | 54 | 10 | 1.0 | 3.0 | 0.00 | 0.00 | 0.00 | 82 | 1019.5 |
| 20260507062507 | 55 | 360 | 0.0 | 4.0 | 0.00 | 0.00 | 0.00 | 82 | 1019.5 |
| 20260507062007 | 55 | 33 | 0.0 | 4.0 | 0.00 | 0.00 | 0.00 | 81 | 1019.5 |
| 20260507061507 | 55 | 93 | 0.0 | 4.0 | 0.00 | 0.00 | 0.00 | 81 | 1019.5 |
| 20260507061006 | 55 | 91 | 1.0 | 4.0 | 0.00 | 0.00 | 0.00 | 81 | 1019.5 |
| 20260507060506 | 55 | 89 | 0.0 | 5.0 | 0.00 | 0.00 | 0.00 | 81 | 1019.5 |
| 20260507055506 | 55 | 79 | 1.0 | 3.0 | 0.00 | 0.00 | 0.00 | 81 | 1019.5 |
| 20260507055005 | 55 | 145 | 1.0 | 3.0 | 0.00 | 0.00 | 0.00 | 81 | 1019.5 |
| 20260507054505 | 55 | 184 | 0.0 | 3.0 | 0.00 | 0.00 | 0.00 | 81 | 1019.4 |
| 20260507054006 | 55 | 184 | 0.0 | 3.0 | 0.00 | 0.00 | 0.00 | 81 | 1019.4 |
| 20260507053505 | 55 | 185 | 0.0 | 4.0 | 0.00 | 0.00 | 0.00 | 80 | 1019.4 |
| 20260507053005 | 55 | 211 | 1.0 | 4.0 | 0.00 | 0.00 | 0.00 | 80 | 1019.4 |
| 20260507052504 | 55 | 147 | 1.0 | 2.0 | 0.00 | 0.00 | 0.00 | 80 | 1019.3 |
| 20260507052004 | 55 | 185 | 0.0 | 4.0 | 0.00 | 0.00 | 0.00 | 80 | 1019.3 |
| 20260507051504 | 55 | 185 | 0.0 | 4.0 | 0.00 | 0.00 | 0.00 | 80 | 1019.4 |
| 20260507051004 | 55 | 63 | 0.0 | 3.0 | 0.00 | 0.00 | 0.00 | 80 | 1019.3 |
| 20260507050504 | 55 | 188 | 0.0 | 3.0 | 0.00 | 0.00 | 0.00 | 80 | 1019.4 |
| 20260507050004 | 55 | 185 | 0.0 | 2.0 | 0.00 | 0.00 | 0.00 | 80 | 1019.3 |
| 20260507045503 | 55 | 208 | 1.0 | 2.0 | 0.00 | 0.00 | 0.00 | 80 | 1019.3 |
| 20260507045003 | 55 | 153 | 0.0 | 2.0 | 0.00 | 0.00 | 0.00 | 80 | 1019.3 |
| 20260507044502 | 55 | 153 | 0.0 | 2.0 | 0.00 | 0.00 | 0.00 | 80 | 1019.2 |
| 20260507044002 | 55 | 160 | 0.0 | 3.0 | 0.00 | 0.00 | 0.00 | 80 | 1019.4 |
| 20260507043502 | 55 | 160 | 0.0 | 3.0 | 0.00 | 0.00 | 0.00 | 79 | 1019.3 |
| 20260507043004 | 56 | 44 | 0.0 | 2.0 | 0.00 | 0.00 | 0.00 | 79 | 1019.3 |
| 20260507042553 | 56 | 61 | 0.0 | 3.0 | 0.00 | 0.00 | 0.00 | 79 | 1019.3 |
| 20260507042053 | 56 | 61 | 1.0 | 3.0 | 0.00 | 0.00 | 0.00 | 79 | 1019.3 |
| 20260507041600 | 56 | 95 | 0.0 | 3.0 | 0.00 | 0.00 | 0.00 | 79 | 1019.2 |
| 20260507041053 | 56 | 181 | 0.0 | 2.0 | 0.00 | 0.00 | 0.00 | 79 | 1019.2 |
| 20260507040553 | 56 | 181 | 0.0 | 2.0 | 0.00 | 0.00 | 0.00 | 79 | 1019.1 |
| 20260507040100 | 56 | 181 | 0.0 | 2.0 | 0.00 | 0.00 | 0.00 | 79 | 1019.2 |
| 20260507035551 | 56 | 181 | 0.0 | 3.0 | 0.00 | 0.00 | 0.00 | 79 | 1019.2 |
| 20260507035009 | 56 | 181 | 1.0 | 3.0 | 0.00 | 0.00 | 0.00 | 79 | 1019.3 |
| 20260507034508 | 56 | 173 | 0.0 | 1.0 | 0.00 | 0.00 | 0.00 | 79 | 1019.3 |
| 20260507034009 | 56 | 173 | 0.0 | 2.0 | 0.00 | 0.00 | 0.00 | 79 | 1019.3 |
| 20260507033512 | 56 | 173 | 0.0 | 2.0 | 0.00 | 0.00 | 0.00 | 79 | 1019.4 |
| 20260507033009 | 56 | 173 | 0.0 | 2.0 | 0.00 | 0.00 | 0.00 | 78 | 1019.4 |
| 20260507032507 | 56 | 173 | 0.0 | 3.0 | 0.00 | 0.00 | 0.00 | 78 | 1019.3 |
| 20260507032008 | 56 | 218 | 1.0 | 3.0 | 0.00 | 0.00 | 0.00 | 78 | 1019.3 |
| 20260507031508 | 56 | 68 | 0.0 | 3.0 | 0.00 | 0.00 | 0.00 | 78 | 1019.2 |
| 20260507031007 | 56 | 52 | 1.0 | 3.0 | 0.00 | 0.00 | 0.00 | 78 | 1019.3 |
| 20260507030508 | 56 | 98 | 0.0 | 2.0 | 0.00 | 0.00 | 0.00 | 78 | 1019.3 |
| 20260507030006 | 56 | 101 | 0.0 | 3.0 | 0.00 | 0.00 | 0.00 | 78 | 1019.3 |
| 20260507025507 | 56 | 107 | 0.0 | 3.0 | 0.00 | 0.00 | 0.00 | 78 | 1019.3 |
| 20260507025007 | 56 | 176 | 0.0 | 4.0 | 0.00 | 0.00 | 0.00 | 78 | 1019.3 |
| 20260507024508 | 56 | 181 | 1.0 | 4.0 | 0.00 | 0.00 | 0.00 | 78 | 1019.3 |
| 20260507024008 | 57 | 141 | 2.0 | 5.0 | 0.00 | 0.00 | 0.00 | 77 | 1019.3 |
| 20260507023506 | 57 | 180 | 1.0 | 6.0 | 0.00 | 0.00 | 0.00 | 77 | 1019.2 |
| 20260507023006 | 57 | 179 | 0.0 | 4.0 | 0.00 | 0.00 | 0.00 | 77 | 1019.2 |
| 20260507022506 | 57 | 201 | 0.0 | 6.0 | 0.00 | 0.00 | 0.00 | 77 | 1019.2 |
| 20260507022005 | 57 | 190 | 2.0 | 6.0 | 0.00 | 0.00 | 0.00 | 77 | 1019.2 |
| 20260507021510 | 57 | 176 | 2.0 | 7.0 | 0.00 | 0.00 | 0.00 | 76 | 1019.2 |
| 20260507021008 | 57 | 197 | 2.0 | 6.0 | 0.00 | 0.00 | 0.00 | 76 | 1019.2 |
| 20260507020505 | 57 | 176 | 0.0 | 4.0 | 0.00 | 0.00 | 0.00 | 76 | 1019.2 |
| 20260507020006 | 57 | 176 | 0.0 | 6.0 | 0.00 | 0.00 | 0.00 | 76 | 1019.1 |
| 20260507015506 | 57 | 196 | 4.0 | 6.0 | 0.00 | 0.00 | 0.00 | 76 | 1019.1 |
| 20260507015005 | 57 | 106 | 1.0 | 3.0 | 0.00 | 0.00 | 0.00 | 77 | 1019.0 |
| 20260507014505 | 57 | 101 | 1.0 | 4.0 | 0.00 | 0.00 | 0.00 | 76 | 1019.1 |
| 20260507014004 | 57 | 58 | 1.0 | 5.0 | 0.00 | 0.00 | 0.00 | 76 | 1019.0 |
| 20260507013504 | 57 | 155 | 3.0 | 5.0 | 0.00 | 0.00 | 0.00 | 76 | 1019.0 |
| 20260507013004 | 57 | 164 | 1.0 | 4.0 | 0.00 | 0.00 | 0.00 | 76 | 1019.1 |
| 20260507012506 | 57 | 360 | 0.0 | 5.0 | 0.00 | 0.00 | 0.00 | 77 | 1019.0 |
| 20260507012006 | 57 | 163 | 2.0 | 5.0 | 0.00 | 0.00 | 0.00 | 76 | 1019.1 |
| 20260507011504 | 57 | 172 | 2.0 | 5.0 | 0.00 | 0.00 | 0.00 | 76 | 1019.1 |
| 20260507011003 | 57 | 182 | 1.0 | 3.0 | 0.00 | 0.00 | 0.00 | 77 | 1019.1 |
| 20260507010504 | 57 | 144 | 0.0 | 3.0 | 0.00 | 0.00 | 0.00 | 77 | 1019.2 |
| 20260507010003 | 57 | 144 | 1.0 | 4.0 | 0.00 | 0.00 | 0.00 | 76 | 1019.2 |
| 20260507005504 | 57 | 194 | 2.0 | 4.0 | 0.00 | 0.00 | 0.00 | 76 | 1019.2 |
| 20260507005002 | 57 | 197 | 2.0 | 4.0 | 0.00 | 0.00 | 0.00 | 76 | 1019.2 |
| 20260507004502 | 57 | 172 | 2.0 | 5.0 | 0.00 | 0.00 | 0.00 | 76 | 1019.3 |
| 20260507004002 | 57 | 175 | 1.0 | 5.0 | 0.00 | 0.00 | 0.00 | 76 | 1019.3 |
| 20260507003502 | 57 | 193 | 3.0 | 4.0 | 0.00 | 0.00 | 0.00 | 77 | 1019.3 |
| 20260507003005 | 57 | 212 | 1.0 | 4.0 | 0.00 | 0.00 | 0.00 | 77 | 1019.2 |
| 20260507002501 | 57 | 176 | 0.0 | 5.0 | 0.00 | 0.00 | 0.00 | 77 | 1019.2 |
| 20260507002002 | 58 | 174 | 3.0 | 5.0 | 0.00 | 0.00 | 0.00 | 77 | 1019.2 |
| 20260507001501 | 58 | 164 | 2.0 | 4.0 | 0.00 | 0.00 | 0.00 | 78 | 1019.2 |
| 20260507001004 | 58 | 179 | 1.0 | 6.0 | 0.00 | 0.00 | 0.00 | 77 | 1019.1 |
| 20260507000602 | 58 | 202 | 1.0 | 6.0 | 0.00 | 0.00 | 0.00 | 77 | 1019.2 |
| 20260507000502 | 58 | 162 | 2.0 | 6.0 | 0.00 | 0.00 | 0.00 | 77 | 1019.2 |
| 20260507000002 | 58 | 220 | 2.0 | 6.0 | 0.00 | 0.00 | 0.00 | 77 | 1019.2 |
| 20260506235500 | 58 | 160 | 3.0 | 7.0 | 0.00 | 0.00 | 0.00 | 77 | 1019.2 |
| 20260506235101 | 58 | 201 | 1.0 | 4.0 | 0.00 | 0.00 | 0.00 | 77 | 1019.1 |
| 20260506234606 | 58 | 203 | 3.0 | 8.0 | 0.00 | 0.00 | 0.00 | 77 | 1019.1 |
| 20260506234100 | 58 | 195 | 3.0 | 8.0 | 0.00 | 0.00 | 0.00 | 77 | 1019.1 |
| 20260506233600 | 58 | 178 | 2.0 | 10.0 | 0.00 | 0.00 | 0.00 | 77 | 1019.1 |
| 20260506233059 | 58 | 143 | 4.0 | 10.0 | 0.00 | 0.00 | 0.00 | 76 | 1019.1 |
| 20260506232700 | 58 | 185 | 4.0 | 10.0 | 0.00 | 0.00 | 0.00 | 76 | 1019.1 |
| 20260506232058 | 58 | 178 | 1.0 | 7.0 | 0.00 | 0.00 | 0.00 | 77 | 1019.1 |
| 20260506231558 | 58 | 199 | 2.0 | 7.0 | 0.00 | 0.00 | 0.00 | 77 | 1019.1 |
| 20260506231058 | 58 | 134 | 2.0 | 7.0 | 0.00 | 0.00 | 0.00 | 77 | 1019.2 |
| 20260506230559 | 58 | 170 | 4.0 | 9.0 | 0.00 | 0.00 | 0.00 | 77 | 1019.1 |
| 20260506230058 | 58 | 97 | 3.0 | 9.0 | 0.00 | 0.00 | 0.00 | 77 | 1019.1 |
| 20260506225557 | 58 | 161 | 4.0 | 9.0 | 0.00 | 0.00 | 0.00 | 77 | 1019.1 |
| 20260506225059 | 58 | 144 | 4.0 | 9.0 | 0.00 | 0.00 | 0.00 | 77 | 1019.1 |
| 20260506224556 | 58 | 161 | 4.0 | 9.0 | 0.00 | 0.00 | 0.00 | 77 | 1019.1 |
| 20260506224055 | 58 | 215 | 5.0 | 11.0 | 0.00 | 0.00 | 0.00 | 78 | 1019.2 |
| 20260506223555 | 58 | 170 | 2.0 | 7.0 | 0.00 | 0.00 | 0.00 | 78 | 1019.2 |
| 20260506223056 | 58 | 214 | 3.0 | 9.0 | 0.00 | 0.00 | 0.00 | 78 | 1019.1 |
| 20260506222552 | 58 | 168 | 4.0 | 9.0 | 0.00 | 0.00 | 0.00 | 78 | 1019.2 |
| 20260506222054 | 58 | 212 | 2.0 | 7.0 | 0.00 | 0.00 | 0.00 | 78 | 1019.2 |
| 20260506221550 | 58 | 185 | 2.0 | 7.0 | 0.00 | 0.00 | 0.00 | 78 | 1019.2 |
| 20260506221050 | 58 | 201 | 3.0 | 7.0 | 0.00 | 0.00 | 0.00 | 78 | 1019.3 |
| 20260506220550 | 58 | 207 | 3.0 | 10.0 | 0.00 | 0.00 | 0.00 | 78 | 1019.4 |
| 20260506220058 | 58 | 180 | 3.0 | 10.0 | 0.00 | 0.00 | 0.00 | 77 | 1019.3 |
| 20260506215549 | 58 | 110 | 2.0 | 9.0 | 0.00 | 0.00 | 0.00 | 77 | 1019.3 |
| 20260506215050 | 58 | 250 | 2.0 | 9.0 | 0.00 | 0.00 | 0.00 | 78 | 1019.3 |
| 20260506214550 | 58 | 17 | 1.0 | 11.0 | 0.00 | 0.00 | 0.00 | 77 | 1019.3 |
| 20260506214050 | 58 | 10 | 3.0 | 11.0 | 0.00 | 0.00 | 0.00 | 78 | 1019.3 |
| 20260506213553 | 58 | 45 | 2.0 | 5.0 | 0.00 | 0.00 | 0.00 | 77 | 1019.3 |
| 20260506213052 | 58 | 29 | 1.0 | 5.0 | 0.00 | 0.00 | 0.00 | 77 | 1019.3 |
| 20260506212550 | 58 | 169 | 1.0 | 7.0 | 0.00 | 0.00 | 0.00 | 77 | 1019.4 |
| 20260506212050 | 58 | 199 | 3.0 | 10.0 | 0.00 | 0.00 | 0.00 | 78 | 1019.3 |
| 20260506211548 | 58 | 70 | 1.0 | 10.0 | 0.00 | 0.00 | 0.00 | 77 | 1019.4 |
| 20260506211048 | 58 | 27 | 2.0 | 5.0 | 0.00 | 0.00 | 0.00 | 77 | 1019.4 |
| 20260506210548 | 58 | 328 | 1.0 | 5.0 | 0.00 | 0.00 | 0.00 | 78 | 1019.5 |
| 20260506210055 | 58 | 61 | 1.0 | 10.0 | 0.00 | 0.00 | 0.00 | 78 | 1019.4 |
| 20260506205547 | 58 | 65 | 4.0 | 10.0 | 0.00 | 0.00 | 0.00 | 77 | 1019.6 |
| 20260506205050 | 58 | 57 | 1.0 | 9.0 | 0.00 | 0.00 | 0.00 | 77 | 1019.5 |
| 20260506204551 | 58 | 71 | 4.0 | 9.0 | 0.00 | 0.00 | 0.00 | 78 | 1019.5 |
| 20260506204047 | 58 | 56 | 4.0 | 9.0 | 0.00 | 0.00 | 0.00 | 78 | 1019.5 |
| 20260506203547 | 58 | 70 | 1.0 | 5.0 | 0.00 | 0.00 | 0.00 | 78 | 1019.6 |
| 20260506203135 | 58 | 320 | 1.0 | 6.0 | 0.00 | 0.00 | 0.00 | 78 | 1019.5 |
| 20260506202548 | 58 | 216 | 0.0 | 6.0 | 0.00 | 0.00 | 0.00 | 78 | 1019.6 |
| 20260506202046 | 58 | 155 | 2.0 | 5.0 | 0.00 | 0.00 | 0.00 | 78 | 1019.5 |
| 20260506201548 | 58 | 155 | 1.0 | 6.0 | 0.00 | 0.00 | 0.00 | 77 | 1019.5 |
| 20260506201045 | 58 | 360 | 2.0 | 10.0 | 0.00 | 0.00 | 0.00 | 78 | 1019.6 |
| 20260506200544 | 58 | 75 | 3.0 | 10.0 | 0.00 | 0.00 | 0.00 | 78 | 1019.5 |
| 20260506200049 | 58 | 64 | 1.0 | 14.0 | 0.00 | 0.00 | 0.00 | 79 | 1019.4 |
| 20260506195544 | 58 | 58 | 3.0 | 7.0 | 0.00 | 0.00 | 0.00 | 79 | 1019.4 |
| 20260506195044 | 58 | 189 | 3.0 | 8.0 | 0.00 | 0.00 | 0.00 | 80 | 1019.4 |
| 20260506194543 | 58 | 108 | 3.0 | 8.0 | 0.00 | 0.00 | 0.00 | 79 | 1019.3 |
| 20260506194042 | 58 | 251 | 2.0 | 8.0 | 0.00 | 0.00 | 0.00 | 80 | 1019.3 |
| 20260506193541 | 58 | 205 | 2.0 | 8.0 | 0.00 | 0.00 | 0.00 | 80 | 1019.3 |
| 20260506193041 | 58 | 176 | 5.0 | 9.0 | 0.00 | 0.00 | 0.00 | 80 | 1019.3 |
| 20260506192539 | 58 | 168 | 4.0 | 8.0 | 0.00 | 0.00 | 0.00 | 80 | 1019.3 |
| 20260506192038 | 57 | 189 | 2.0 | 10.0 | 0.00 | 0.00 | 0.00 | 81 | 1019.4 |
| 20260506191538 | 57 | 153 | 2.0 | 10.0 | 0.00 | 0.00 | 0.00 | 81 | 1019.4 |
| 20260506191038 | 57 | 205 | 3.0 | 10.0 | 0.00 | 0.00 | 0.00 | 81 | 1019.3 |
| 20260506190539 | 57 | 241 | 1.0 | 9.0 | 0.00 | 0.00 | 0.00 | 81 | 1019.2 |
| 20260506190045 | 57 | 170 | 4.0 | 10.0 | 0.00 | 0.00 | 0.00 | 81 | 1019.3 |
| 20260506185536 | 57 | 222 | 5.0 | 9.0 | 0.00 | 0.00 | 0.00 | 80 | 1019.3 |
| 20260506185036 | 57 | 101 | 2.0 | 10.0 | 0.00 | 0.00 | 0.00 | 81 | 1019.3 |
| 20260506184543 | 57 | 167 | 4.0 | 10.0 | 0.00 | 0.00 | 0.00 | 81 | 1019.5 |
| 20260506184035 | 57 | 206 | 2.0 | 9.0 | 0.00 | 0.00 | 0.00 | 81 | 1019.4 |
| 20260506183535 | 57 | 160 | 4.0 | 9.0 | 0.00 | 0.00 | 0.00 | 81 | 1019.2 |
| 20260506183034 | 57 | 153 | 6.0 | 9.0 | 0.00 | 0.00 | 0.00 | 81 | 1019.2 |
| 20260506182533 | 57 | 183 | 3.0 | 7.0 | 0.00 | 0.00 | 0.00 | 81 | 1019.2 |
| 20260506182032 | 57 | 144 | 4.0 | 7.0 | 0.00 | 0.00 | 0.00 | 82 | 1019.2 |
| 20260506181534 | 57 | 190 | 2.0 | 6.0 | 0.00 | 0.00 | 0.00 | 82 | 1019.1 |
| 20260506181033 | 57 | 155 | 0.0 | 8.0 | 0.00 | 0.00 | 0.00 | 82 | 1019.1 |
| 20260506180533 | 56 | 69 | 0.0 | 8.0 | 0.00 | 0.00 | 0.00 | 82 | 1019.0 |
| 20260506180031 | 56 | 131 | 1.0 | 5.0 | 0.00 | 0.00 | 0.00 | 83 | 1019.0 |
| 20260506175531 | 56 | 138 | 2.0 | 8.0 | 0.00 | 0.00 | 0.00 | 83 | 1018.9 |
| 20260506175029 | 56 | 192 | 5.0 | 9.0 | 0.00 | 0.00 | 0.00 | 83 | 1018.8 |
| 20260506174529 | 56 | 181 | 2.0 | 5.0 | 0.00 | 0.00 | 0.00 | 84 | 1019.0 |
| 20260506174028 | 55 | 10 | 1.0 | 7.0 | 0.00 | 0.00 | 0.00 | 84 | 1019.0 |
| 20260506173526 | 55 | 172 | 4.0 | 7.0 | 0.00 | 0.00 | 0.00 | 85 | 1019.0 |
| 20260506173032 | 55 | 175 | 1.0 | 10.0 | 0.00 | 0.00 | 0.00 | 85 | 1019.1 |
| 20260506172524 | 55 | 192 | 3.0 | 10.0 | 0.00 | 0.00 | 0.00 | 86 | 1019.0 |
| 20260506172023 | 55 | 335 | 1.0 | 3.0 | 0.00 | 0.00 | 0.00 | 86 | 1018.9 |
| 20260506171524 | 54 | 22 | 1.0 | 6.0 | 0.00 | 0.00 | 0.00 | 87 | 1018.9 |
| 20260506171023 | 54 | 164 | 2.0 | 6.0 | 0.00 | 0.00 | 0.00 | 88 | 1019.0 |
| 20260506170526 | 54 | 318 | 2.0 | 5.0 | 0.00 | 0.00 | 0.00 | 88 | 1019.0 |
| 20260506170022 | 54 | 346 | 1.0 | 4.0 | 0.00 | 0.00 | 0.00 | 88 | 1018.9 |
| 20260506165522 | 54 | 158 | 1.0 | 8.0 | 0.00 | 0.00 | 0.00 | 89 | 1018.9 |
| 20260506165020 | 53 | 326 | 1.0 | 8.0 | 0.00 | 0.00 | 0.00 | 89 | 1018.9 |
| 20260506164520 | 53 | 205 | 1.0 | 7.0 | 0.00 | 0.00 | 0.00 | 88 | 1018.9 |
| 20260506164019 | 53 | 176 | 3.0 | 7.0 | 0.00 | 0.00 | 0.00 | 89 | 1018.9 |
| 20260506163518 | 53 | 160 | 2.0 | 9.0 | 0.00 | 0.00 | 0.00 | 89 | 1018.8 |
| 20260506163037 | 53 | 183 | 3.0 | 9.0 | 0.00 | 0.00 | 0.00 | 88 | 1018.7 |
| 20260506162517 | 53 | 189 | 4.0 | 9.0 | 0.00 | 0.00 | 0.00 | 88 | 1018.6 |
| 20260506162017 | 53 | 174 | 5.0 | 9.0 | 0.00 | 0.00 | 0.00 | 88 | 1018.6 |
| 20260506161516 | 53 | 191 | 4.0 | 8.0 | 0.00 | 0.00 | 0.00 | 88 | 1018.5 |
| 20260506161014 | 53 | 160 | 3.0 | 7.0 | 0.00 | 0.00 | 0.00 | 88 | 1018.6 |
| 20260506160513 | 53 | 197 | 4.0 | 9.0 | 0.00 | 0.00 | 0.00 | 88 | 1018.6 |
| 20260506160013 | 53 | 166 | 3.0 | 9.0 | 0.00 | 0.00 | 0.00 | 88 | 1018.7 |
| 20260506155512 | 53 | 53 | 1.0 | 8.0 | 0.00 | 0.00 | 0.00 | 89 | 1018.6 |
| 20260506155011 | 53 | 171 | 3.0 | 8.0 | 0.00 | 0.00 | 0.00 | 89 | 1018.7 |
| 20260506154527 | 53 | 160 | 3.0 | 9.0 | 0.00 | 0.00 | 0.00 | 89 | 1018.6 |
| 20260506154010 | 53 | 192 | 1.0 | 7.0 | 0.00 | 0.00 | 0.00 | 90 | 1018.6 |
| 20260506153511 | 53 | 135 | 2.0 | 6.0 | 0.00 | 0.00 | 0.00 | 90 | 1018.6 |
| 20260506153009 | 53 | 166 | 2.0 | 5.0 | 0.00 | 0.00 | 0.00 | 90 | 1018.6 |
| 20260506152515 | 53 | 149 | 1.0 | 4.0 | 0.00 | 0.00 | 0.00 | 90 | 1018.7 |
| 20260506152011 | 53 | 62 | 1.0 | 5.0 | 0.00 | 0.00 | 0.00 | 90 | 1018.6 |
| 20260506151511 | 53 | 120 | 1.0 | 6.0 | 0.00 | 0.00 | 0.00 | 90 | 1018.6 |
| 20260506151008 | 53 | 206 | 0.0 | 6.0 | 0.00 | 0.00 | 0.00 | 90 | 1018.5 |
| 20260506150509 | 53 | 360 | 1.0 | 5.0 | 0.00 | 0.00 | 0.00 | 90 | 1018.5 |
| 20260506150007 | 53 | 211 | 1.0 | 7.0 | 0.00 | 0.00 | 0.00 | 90 | 1018.5 |
| 20260506145505 | 53 | 268 | 2.0 | 7.0 | 0.00 | 0.00 | 0.00 | 89 | 1018.5 |
| 20260506145003 | 53 | 191 | 2.0 | 7.0 | 0.00 | 0.00 | 0.00 | 89 | 1018.6 |
| 20260506144503 | 54 | 119 | 1.0 | 7.0 | 0.00 | 0.00 | 0.00 | 89 | 1018.3 |
| 20260506144002 | 54 | 237 | 2.0 | 7.0 | 0.00 | 0.00 | 0.00 | 89 | 1018.2 |
| 20260506143504 | 54 | 164 | 1.0 | 10.0 | 0.00 | 0.00 | 0.00 | 89 | 1018.2 |
| 20260506143003 | 54 | 79 | 4.0 | 10.0 | 0.00 | 0.00 | 0.00 | 88 | 1018.3 |
| 20260506142556 | 54 | 56 | 4.0 | 10.0 | 0.00 | 0.00 | 0.00 | 88 | 1018.1 |
| 20260506142053 | 54 | 222 | 2.0 | 7.0 | 0.00 | 0.00 | 0.00 | 88 | 1018.0 |